Regional Weather Roundup
Issued by NWS Albany, NY

Home | Current Version | Previous Version | Text Only | Print | Product List | Glossary On
Versions: 1 2 3 4 5 6 7 8 9 10 11 12 13 14 15 16 17 18 19 20 21 22 23 24 25 26 27
000
ASUS41 KALY 280310
RWRALY

NEW YORK STATE HOURLY WEATHER ROUNDUP
NATIONAL WEATHER SERVICE ALBANY NY
1100 PM EDT WED JUL 27 2016

NOTE: "FAIR" INDICATES FEW OR NO CLOUDS BELOW 12,000 FEET WITH NO
SIGNIFICANT WEATHER AND/OR NO OBSTRUCTIONS TO VISIBILITY.

NYZ032-033-038>043-046>054-057>066-NYZ062>081-082-084-280400-
EAST


CITY           SKY/WX    TMP DP  RH WIND       PRES   REMARKS
ALBANY         MOCLDY    76  61  59 CALM      29.90F
GLENS FALLS    CLOUDY    70  63  78 CALM      29.89S
POUGHKEEPSIE   CLEAR     72  64  76 CALM      29.89F
NEWBURGH       CLEAR     73  66  78 W5        29.94S
MONTGOMERY     CLEAR     68  64  87 CALM      29.92S
WHITE PLAINS   PTCLDY    74  65  73 CALM      29.92F
ISLIP          PTCLDY    76  72  87 S3        29.92S
NEW YORK CITY  PTCLDY    83  69  62 S8        29.90F
CENTRAL PARK   CLEAR     81  66  60 CALM      29.93F
$$

NYZ005>009-017-018-044>046-055-056-280400-
CENTRAL


CITY           SKY/WX    TMP DP  RH WIND       PRES   REMARKS
FULTON         CLEAR     72  66  81 CALM      29.90S
SYRACUSE       PTCLDY    75  64  68 CALM      29.89F
ROME           CLEAR     71  64  78 CALM      29.91F
ELMIRA         CLEAR     68  60  75 CALM      29.94S
BINGHAMTON     CLEAR     74  57  55 CALM      29.98S
MONTICELLO     CLEAR     66  63  88 N3        29.99S
$$

NYZ026>034-041>043-087-280400-
NORTH


CITY           SKY/WX    TMP DP  RH WIND       PRES   REMARKS
WATERTOWN      MOCLDY    73  62  68 SW5       29.88S
FORT DRUM      NOT AVBL
MASSENA        MOCLDY    73  60  63 S8        29.85F
SARANAC LAKE   CLOUDY    65  56  72 SW3       29.94S
PLATTSBURGH    CLEAR     74  62  66 VRB3      29.85S
$$

NYZ001>004-010>016-019>021-085-280400-
WEST


CITY           SKY/WX    TMP DP  RH WIND       PRES   REMARKS
NIAGARA FALLS  MOCLDY    75  65  70 S3        29.92F
BUFFALO        PTCLDY    75  67  76 SW5       29.93F
DUNKIRK        CLEAR     71  61  70 SW6       29.94F
JAMESTOWN      CLEAR     68  55  64 S3        30.00F
WELLSVILLE     CLEAR     72  59  63 NW3       30.03S
ROCHESTER      CLEAR     76  61  59 W5        29.92F
PENN YAN       CLEAR     72  62  71 CALM      29.95S
$$

             KEY
       WCI = WIND CHILL INDEX
       VSB = VISIBILITY
       HX  = HEAT INDEX
$$




USA.gov is the U.S. government's official web portal to all federal, state and local government web resources and services.